Regional Weather Roundup
Issued by NWS

Home | Current Version | Previous Version | Text Only | Print | Product List | Glossary On
Versions: 1 2 3 4 5 6 7 8 9 10 11 12 13 14 15 16 17 18 19 20 21 22 23 24 25 26 27 28 29 30 31 32 33 34 35 36 37 38 39 40 41 42 43 44 45 46 47 48 49 50
000
ASUS42 KFFC 260403
RWRGA
WEATHER ROUNDUP FOR GEORGIA
NATIONAL WEATHER SERVICE PEACHTREE CITY GA
1200 AM EDT TUE MAY 26 2015

NOTE: "FAIR" INDICATES FEW OR NO CLOUDS BELOW 12,000 FEET WITH NO
SIGNIFICANT WEATHER AND/OR OBSTRUCTIONS TO VISIBILITY.

* = USE WITH CAUTION. THE STATIONS MARKED WITH AN ASTERISK MAY NOT
REPORT WEATHER SUCH AS PRECIPITATION, FOG, OR THUNDER AND ARE NOT
QUALITY CONTROLLED BY NWS.

THE REMARK "TC" DENOTES TEMPERATURE READING IN DEGREES CELSIUS.

GAZ001>058-260500-
NORTH GEORGIA

CITY           SKY/WX    TMP DP  RH WIND       PRES   REMARKS
ATLANTA        CLOUDY    69  66  90 SE5       30.21R
ATHENS         CLOUDY    70  67  90 VRB3      30.24R
CHAMBLEE       CLOUDY    68  67  96 CALM      30.22R
PEACHTREE CITY CLOUDY    69  66  90 SE3       30.20R
ROME           CLOUDY    68  67  96 CALM      30.20R
WEST ATLANTA   CLOUDY    69  67  93 CALM      30.21R
GAINESVILLE    CLOUDY    66  65  96 E6        30.26R
CARTERSVILLE   CLOUDY    69  67  93 VRB3      30.20R


CITY           SKY/WX    TMP DP  RH WIND       PRES   REMARKS
DALTON*        CLOUDY    64  64 100 CALM      30.20R
BLAIRSVILLE*   LGT RAIN  66  58  76 SE5       30.26S
$$

GAZ059>098-102>109-260500-
CENTRAL GEORGIA

CITY           SKY/WX    TMP DP  RH WIND       PRES   REMARKS
AUGUSTA-BUSH   PTCLDY    72  67  84 SE6       30.24S
AUGUSTA-DANIEL PTCLDY    75  66  73 SE6       30.26R
COLUMBUS       CLOUDY    70  67  90 E8        30.16S
MACON          PTCLDY    70  69  97 E3        30.20S


CITY           SKY/WX    TMP DP  RH WIND       PRES   REMARKS
LAGRANGE*      CLOUDY    72  72 100 CALM      30.18S
SYLVANIA*      PTCLDY    73  71  96 E3        30.26S
MILLEDGEVILLE* PTCLDY    73  72  94 CALM      30.22R
$$

GAZ099>101-110>166-260500-
SOUTH GEORGIA

CITY           SKY/WX    TMP DP  RH WIND       PRES   REMARKS
SAVANNAH       PTCLDY    74  70  87 E9        30.24F
VALDOSTA       MOCLDY    77  71  82 SE8       30.19S
ALMA           CLEAR     74  70  87 SE8       30.22S
ALBANY         CLOUDY    79  70  74 SE14      30.18S
MOODY AFB      MOCLDY    76  70  81 E10       30.19R
BRUNSWICK      PTCLDY    75  72  88 E7        30.24S


CITY           SKY/WX    TMP DP  RH WIND       PRES   REMARKS
BAINBRIDGE*    MOCLDY    77  72  83 CALM      30.16S
MOULTRIE*      CLOUDY    77  70  78 E3        30.19R
VIDALIA*       PTCLDY    73  68  83 SE3       30.23R
WAYCROSS*      MOCLDY    75  73  95 SE5       30.22R
DOUGLAS*       PTCLDY    77  72  83 SE7       30.23R
$$


USA.gov is the U.S. government's official web portal to all federal, state and local government web resources and services.